Regional Weather Roundup
Issued by NWS Columbia, SC

Home | Current Version | Previous Version | Text Only | Print | Product List | Glossary On
Versions: 1 2 3 4 5 6 7 8 9 10 11 12 13 14 15 16 17 18 19 20 21 22 23 24 25 26 27
000
ASUS42 KCAE 200310
RWRCAE
REGIONAL WEATHER ROUNDUP
NATIONAL WEATHER SERVICE COLUMBIA SC
1100 PM EDT SAT APR 19 2014

NOTE: "FAIR" INDICATES FEW OR NO CLOUDS BELOW 12,000 FEET WITH NO
SIGNIFICANT WEATHER AND/OR OBSTRUCTIONS TO VISIBILITY.

NOT ALL STATIONS ARE QUALITY CONTROLLED BY THE NATIONAL
WEATHER SERVICE. USE DATA WITH CAUTION...ESPECIALLY
DEWPOINT OBSERVATIONS.

SCZ001>056-GAZ040-063>065-077-200400-
...UPSTATE SOUTH CAROLINA...

CITY           SKY/WX    TMP DP  RH WIND       PRES   REMARKS
ANDERSON       CLOUDY    54  45  71 NE14G23   30.19R
LIBERTY        FAIR      53  15  22 MISG      30.20R
SPARTANBURG    DRIZZLE   52  52 100 NE7       30.21F
CLEMSON        CLOUDY    55  43  63 NE9       30.21R
GREENVILLE     CLOUDY    52  45  77 NE14      30.21R
GREENWOOD      CLOUDY    52  48  86 NE10      30.19F
GREER          CLOUDY    52  47  83 NE10      30.20S
ROCK HILL      LGT RAIN  50  47  89 NE5       30.21S
CHESTER        FAIR      54  50  87 NE9       30.20S
LAURENS        CLOUDY    52 N/A N/A NE10      30.20F


...CENTRAL SOUTH CAROLINA...

CITY           SKY/WX    TMP DP  RH WIND       PRES   REMARKS
COLUMBIA APT   LGT RAIN  52  49  89 N14       30.15R FOG
COLUMBIA OWENS CLOUDY    51  48  89 VRB6      30.16S FOG
DARLINGTON     CLOUDY    52  46  82 N14G22    30.17S
FLORENCE       LGT RAIN  52  49  89 NE13      30.13R FOG
MCENTIRE ANGB  CLOUDY    52  51  97 N8        30.14S
ORANGEBURG     CLOUDY    52  49  89 NE15G23   30.12R
SUMTER SHAW    LGT RAIN  52  51  95 N21G28    30.11S
NEWBERRY       CLOUDY    52  52 100 NE12      30.21S
AIKEN          CLOUDY    54  54 100 NE16G23   30.16S
BARNWELL       CLOUDY    54  52  94 NE12      30.12R
MANNING        CLOUDY    52 N/A N/A N12G21    30.10S
CAMDEN         LGT RAIN  48  48 100 NE18G31   30.16F
LANCASTER      MOCLDY    50  50 100 E7        30.20S
WINNSBORO      FAIR      50  50 100 NE13G24   30.16S


...EASTERN AND COASTAL SOUTH CAROLINA...

CITY           SKY/WX    TMP DP  RH WIND       PRES   REMARKS
MYRTLE BEACH   LGT RAIN  54  50  87 N17G25    30.05S
N MYRTLE BCH   CLOUDY    53  49  86 N14G24    30.05R
CONWAY         CLOUDY    52  52 100 N9        30.09R
MARION         DRIZZLE   50  50 100 N12G24    30.12S
HARTSVILLE     CLOUDY    50  50 100 N17G28    30.16S
FLORENCE       LGT RAIN  52  49  89 NE13      30.13R FOG
DARLINGTON     CLOUDY    52  46  82 N14G22    30.17S
CHARLESTON APT CLOUDY    55  51  86 N14       30.06R
MOUNT PLEASANT CLOUDY   N/A N/A N/A N13G20    30.04R
WALTERBORO     CLOUDY    52 N/A N/A N7        30.08S HAZE
BEAUFORT       CLOUDY    56  53  90 NE6       30.07R


...EASTERN GEORGIA...

CITY           SKY/WX    TMP DP  RH WIND       PRES   REMARKS
AUGUSTA BUSH F LGT RAIN  54  51  90 NE14G22   30.12F
AUGUSTA DANIEL CLOUDY    54  52  93 N13G21    30.13F
THOMSON        CLOUDY    52  52 100 N8G21     30.19S
WASHINGTON     DRIZZLE   52  52 100 NE9G20    30.17S
CLAXTON        RAIN     N/A N/A N/A N7        30.08S
SYLVANIA       CLOUDY    56  52  85 NE9G16    30.09S
STATESBORO     DRIZZLE   54  54 100 NE7       30.09S
SAVANNAH       CLOUDY    56  53  90 N16       30.04F


...SOUTHERN NORTH CAROLINA...

CITY           SKY/WX    TMP DP  RH WIND       PRES   REMARKS
CHARLOTTE      LGT RAIN  52  47  83 NE16      30.22R
MONROE         LGT RAIN  51  47  86 NE8       30.21R
WADESBORO      LGT RAIN  51  48  92 N9        30.21S
ROCKINGHAM       N/A     50  46  87 N13G23    30.18F
RUTHERFORDTON  LGT RAIN  51  49  93 N3        30.25R
ASHEVILLE      LGT RAIN  47  46  97 N3        30.25S

$$



USA.gov is the U.S. government's official web portal to all federal, state and local government web resources and services.